MORRISTOWN NJ US SAI current weather conditions

sailwx.info

Wind from 290 at 6 knots

Air temperature 4.0° C
Visibility: greater than 8.7 NM
Dewpoint -3.0° C

Last reported at 2020-Jan-28 22:13 UTC.
Time now 2020-Jan-28 23:13 UTC

Location: N 40°47' W 074°25'.
View on Google Maps.

See reports from other nearby stations

  
Tides and Currents Weather Stations Pressure Air Temp Water Temp Dewpoint Dewpoint Depression Visibility Wind Speed Wind Dir Waves Ship Positions
date/time (UTC)wind fromknots sea level pressurealtimeterstation pressurevisibilityair tempwater tempwave heightnotes
2020-Jan-28 22:13 290 6 8.7 4.0
2020-Jan-28 22:08 300 5 8.7 4.0
2020-Jan-28 21:58 320 5 8.7 4.0
2020-Jan-28 21:53 340 5 8.7 4.0
2020-Jan-28 21:48 330 6 8.7 4.0
2020-Jan-28 21:45 350 8 8.7 4.0
2020-Jan-28 21:43 350 7 8.7 4.0
2020-Jan-28 21:38 320 7 8.7 4.0
2020-Jan-28 21:33 320 6 8.7 4.0
2020-Jan-28 21:28 330 4 8.7 4.0
2020-Jan-28 21:23 340 4 8.7 4.0
2020-Jan-28 21:18 300 6 8.7 4.0
2020-Jan-28 21:13 300 7 8.7 4.0
2020-Jan-28 21:08 320 6 8.7 4.0
2020-Jan-28 21:03 330 7 8.7 4.0
2020-Jan-28 20:58 320 9 gusting 14 8.7 4.0
2020-Jan-28 20:53 330 9 gusting 14 8.7 4.0
2020-Jan-28 20:48 310 5 8.7 4.0
2020-Jan-28 20:45 340 10 gusting 16 8.7 4.0
2020-Jan-28 20:43 310 9 8.7 4.0
2020-Jan-28 20:38 310 8 8.7 4.0
2020-Jan-28 20:33 300 8 8.7 4.0
2020-Jan-28 20:28 310 7 8.7 4.0
2020-Jan-28 20:23 290 5 8.7 4.0
2020-Jan-28 20:18 290 9 8.7 4.0
2020-Jan-28 20:13 290 8 8.7 4.0
2020-Jan-28 20:08 320 5 8.7 4.0
2020-Jan-28 20:03 320 8 8.7 4.0
2020-Jan-28 19:58 320 8 8.7 4.0
2020-Jan-28 19:53 320 4 8.7 4.0
2020-Jan-28 19:48 320 6 8.7 4.0
2020-Jan-28 19:45 320 5 gusting 11 8.7 4.0
2020-Jan-28 19:43 330 6 8.7 4.0
2020-Jan-28 19:38 310 10 8.7 4.0
2020-Jan-28 19:33 310 8 gusting 14 8.7 4.0
2020-Jan-28 19:28 310 9 gusting 14 8.7 4.0
2020-Jan-28 19:23 320 6 gusting 18 8.7 4.0
2020-Jan-28 19:18 310 8 gusting 18 8.7 4.0
2020-Jan-28 19:13 310 11 gusting 18 8.7 4.0
2020-Jan-28 19:08 320 7 8.7 4.0
2020-Jan-28 19:03 320 9 8.7 4.0
2020-Jan-28 18:58 320 8 8.7 4.0
2020-Jan-28 18:53 300 7 8.7 4.0
2020-Jan-28 18:48 310 9 8.7 4.0
2020-Jan-28 18:45 340 12 gusting 20 8.7 4.0
2020-Jan-28 18:43 320 8 gusting 14 8.7 5.0
2020-Jan-28 18:38 320 7 gusting 15 8.7 4.0
2020-Jan-28 18:33 310 8 gusting 17 8.7 5.0
2020-Jan-28 18:28 300 9 gusting 17 8.7 5.0
2020-Jan-28 18:23 290 11 gusting 17 8.7 5.0
2020-Jan-28 18:18 280 12 gusting 17 8.7 5.0
2020-Jan-28 18:13 300 10 gusting 17 8.7 5.0
2020-Jan-28 18:08 300 10 gusting 19 8.7 5.0
2020-Jan-28 18:03 300 13 gusting 19 8.7 5.0
2020-Jan-28 17:45 330 12 gusting 24 8.7 6.0
2020-Jan-28 17:38 290 13 gusting 20 8.7 6.0
2020-Jan-28 17:33 300 14 gusting 20 8.7 6.0
2020-Jan-28 17:28 300 13 gusting 19 8.7 6.0
2020-Jan-28 17:23 300 13 gusting 19 8.7 5.0
2020-Jan-28 17:18 300 12 gusting 19 8.7 5.0
2020-Jan-28 17:13 290 13 gusting 20 8.7 5.0
2020-Jan-28 17:08 300 12 gusting 20 8.7 5.0
2020-Jan-28 17:03 290 14 gusting 20 8.7 5.0
2020-Jan-28 16:58 310 15 gusting 20 8.7 5.0
2020-Jan-28 16:53 310 13 gusting 19 8.7 5.0
2020-Jan-28 16:48 310 12 gusting 23 8.7 5.0
2020-Jan-28 16:45 350 10 gusting 20 8.7 6.0
2020-Jan-28 16:43 310 13 gusting 23 8.7 5.0
2020-Jan-28 16:38 320 15 gusting 23 8.7 6.0
2020-Jan-28 16:33 300 12 gusting 18 8.7 6.0
2020-Jan-28 16:28 310 11 gusting 17 8.7 6.0
2020-Jan-28 16:23 320 11 gusting 19 8.7 5.0
2020-Jan-28 16:18 320 12 gusting 19 8.7 5.0
2020-Jan-28 16:13 330 14 gusting 19 8.7 5.0
2020-Jan-28 16:08 310 10 gusting 19 8.7 5.0
2020-Jan-28 16:03 310 10 gusting 17 8.7 5.0
2020-Jan-28 15:58 330 12 gusting 17 8.7 5.0
2020-Jan-28 15:53 310 12 gusting 17 8.7 5.0
2020-Jan-28 15:48 310 7 gusting 17 8.7 5.0
2020-Jan-28 15:45 320 9 gusting 20 8.7 5.0
2020-Jan-28 15:43 320 10 gusting 17 8.7 5.0
2020-Jan-28 15:38 310 11 gusting 17 8.7 5.0
2020-Jan-28 15:33 320 8 gusting 17 8.7 5.0
2020-Jan-28 15:28 310 8 gusting 17 8.7 5.0
2020-Jan-28 15:23 310 11 gusting 16 8.7 4.0
2020-Jan-28 15:18 330 10 gusting 19 8.7 4.0
2020-Jan-28 15:13 330 13 gusting 19 8.7 4.0
2020-Jan-28 15:08 320 12 gusting 18 8.7 4.0
2020-Jan-28 15:03 300 8 gusting 16 8.7 4.0
2020-Jan-28 14:58 310 10 gusting 16 8.7 4.0
2020-Jan-28 14:53 310 8 8.7 4.0
2020-Jan-28 14:48 310 8 8.7 4.0
2020-Jan-28 14:45 330 7 gusting 16 8.7 4.0
2020-Jan-28 14:43 320 7 gusting 17 8.7 4.0
2020-Jan-28 14:38 310 8 gusting 17 8.7 4.0
2020-Jan-28 14:33 310 11 8.7 4.0
2020-Jan-28 14:28 320 5 8.7 4.0
2020-Jan-28 14:23 310 5 8.7 3.0
2020-Jan-28 14:18 290 4 8.7 3.0
2020-Jan-28 14:13 310 6 gusting 16 8.7 3.0
2020-Jan-28 14:08 320 4 gusting 16 8.7 3.0
2020-Jan-28 14:03 310 7 8.7 3.0
2020-Jan-28 13:58 310 5 8.7 3.0
2020-Jan-28 13:53 300 7 8.7 3.0
2020-Jan-28 13:48 300 8 8.7 3.0
2020-Jan-28 13:45 350 6 8.7 3.0
2020-Jan-28 13:43 300 6 8.7 3.0
2020-Jan-28 13:38 310 4 8.7 3.0
2020-Jan-28 13:33 310 3 8.7 2.0
2020-Jan-28 13:28 300 4 8.7 2.0
2020-Jan-28 13:23 320 6 8.7 2.0
2020-Jan-28 13:18 290 5 8.7 2.0
2020-Jan-28 13:13 280 7 8.7 2.0
2020-Jan-28 13:08 290 8 8.7 2.0
2020-Jan-28 13:03 320 4 8.7 2.0
2020-Jan-28 12:58 350 4 8.7 2.0
2020-Jan-28 12:53 8.7 2.0
2020-Jan-28 12:48 310 5 8.7 2.0
2020-Jan-28 12:45 320 6 8.7 2.0
2020-Jan-28 12:43 290 6 8.7 2.0
2020-Jan-28 12:38 280 5 8.7 2.0
2020-Jan-28 12:33 280 5 8.7 2.0
2020-Jan-28 12:28 290 5 8.7 2.0
2020-Jan-28 12:23 300 5 8.7 2.0
2020-Jan-28 12:18 290 7 8.7 2.0
2020-Jan-28 12:13 300 5 8.7 2.0
2020-Jan-28 12:08 300 5 8.7 2.0
2020-Jan-28 12:03 280 5 8.7 2.0
2020-Jan-28 11:45 320 8 gusting 13 8.7 2.0
2020-Jan-28 11:38 280 5 8.7 2.0
2020-Jan-28 11:35 280 7 8.7 2.0
2020-Jan-28 11:33 310 7 8.7 2.0
2020-Jan-28 11:28 300 5 8.7 2.0
2020-Jan-28 11:23 300 8 8.7 2.0
2020-Jan-28 11:18 290 10 8.7 2.0
2020-Jan-28 11:15 280 7 8.7 2.0
2020-Jan-28 11:13 300 8 8.7 2.0
2020-Jan-28 11:08 280 7 8.7 2.0
2020-Jan-28 11:03 280 5 8.7 2.0
2020-Jan-28 10:58 290 5 gusting 14 8.7 2.0
2020-Jan-28 10:55 290 7 gusting 14 8.7 2.0
2020-Jan-28 10:53 300 6 gusting 14 8.7 2.0
2020-Jan-28 10:48 290 10 8.7 2.0
2020-Jan-28 10:43 290 5 8.7 2.0
2020-Jan-28 10:38 280 7 8.7 2.0
2020-Jan-28 10:35 270 7 8.7 2.0
2020-Jan-28 10:33 280 5 8.7 2.0
2020-Jan-28 10:28 280 6 8.7 2.0
2020-Jan-28 10:23 280 5 8.7 2.0
2020-Jan-28 10:18 290 5 8.7 2.0
2020-Jan-28 10:15 280 7 8.7 2.0
2020-Jan-28 10:13 290 6 8.7 2.0
2020-Jan-28 10:08 290 5 8.7 2.0
2020-Jan-28 10:03 290 7 8.7 2.0
2020-Jan-28 09:58 300 7 8.7 2.0
2020-Jan-28 09:55 290 5 8.7 2.0
2020-Jan-28 09:53 290 6 8.7 2.0
2020-Jan-28 09:48 300 4 8.7 2.0
2020-Jan-28 09:43 300 4 8.7 2.0
2020-Jan-28 09:38 300 5 8.7 2.0
2020-Jan-28 09:35 300 6 8.7 2.0
2020-Jan-28 09:33 300 6 8.7 2.0
2020-Jan-28 09:28 290 5 8.7 2.0
2020-Jan-28 09:23 300 6 8.7 2.0
2020-Jan-28 09:18 290 5 8.7 2.0
2020-Jan-28 09:15 280 6 8.7 2.0
2020-Jan-28 09:13 290 7 8.7 2.0
2020-Jan-28 09:08 290 4 8.7 2.0
2020-Jan-28 09:03 300 5 8.7 2.0
2020-Jan-28 08:58 300 7 8.7 2.0
2020-Jan-28 08:55 290 6 8.7 2.0
2020-Jan-28 08:53 300 6 8.7 2.0
2020-Jan-28 08:48 290 5 8.7 2.0
2020-Jan-28 08:43 290 5 8.7 2.0
2020-Jan-28 08:38 270 3 8.7 2.0
2020-Jan-28 08:35 280 5 8.7 2.0
2020-Jan-28 08:33 280 4 8.7 2.0
2020-Jan-28 08:28 290 4 8.7 2.0
2020-Jan-28 08:23 300 4 8.7 2.0
2020-Jan-28 08:18 290 4 8.7 2.0
2020-Jan-28 08:15 290 5 gusting 14 8.7 2.0
2020-Jan-28 08:13 310 5 gusting 14 8.7 3.0
2020-Jan-28 08:08 290 8 gusting 14 8.7 3.0
2020-Jan-28 08:03 280 7 8.7 3.0
2020-Jan-28 07:58 300 6 8.7 3.0
2020-Jan-28 07:55 280 8 8.7 3.0
2020-Jan-28 07:53 290 6 8.7 3.0
2020-Jan-28 07:48 290 4 8.7 3.0
2020-Jan-28 07:43 290 5 8.7 3.0
2020-Jan-28 07:38 290 3 8.7 3.0
2020-Jan-28 07:35 280 4 8.7 3.0
2020-Jan-28 07:33 8.7 3.0
2020-Jan-28 07:28 8.7 3.0
2020-Jan-28 07:23 8.7 3.0
2020-Jan-28 07:18 290 5 8.7 3.0
2020-Jan-28 07:15 280 4 8.7 3.0
2020-Jan-28 07:13 300 4 8.7 3.0
2020-Jan-28 07:08 310 5 8.7 3.0
2020-Jan-28 07:03 280 4 8.7 3.0
2020-Jan-28 06:58 290 5 8.7 3.0
2020-Jan-28 06:55 280 4 8.7 3.0
2020-Jan-28 06:53 290 5 8.7 3.0
2020-Jan-28 06:48 280 3 8.7 3.0
2020-Jan-28 06:43 290 5 8.7 3.0
2020-Jan-28 06:38 290 5 8.7 3.0
2020-Jan-28 06:35 270 3 8.7 3.0
2020-Jan-28 06:33 290 5 8.7 3.0
2020-Jan-28 06:28 290 9 8.7 3.0
2020-Jan-28 06:23 280 8 8.7 3.0
2020-Jan-28 06:18 290 8 8.7 3.0
2020-Jan-28 06:15 290 6 8.7 3.0
2020-Jan-28 06:13 300 6 8.7 3.0
2020-Jan-28 06:08 300 7 8.7 3.0
2020-Jan-28 06:03 300 4 8.7 3.0
2020-Jan-28 05:50 300 4 8.7 3.0
2020-Jan-28 05:38 310 3 8.7 3.0
2020-Jan-28 05:35 310 4 8.7 3.0
2020-Jan-28 05:33 310 4 8.7 3.0
2020-Jan-28 05:28 310 5 8.7 3.0
2020-Jan-28 05:23 300 3 8.7 3.0
2020-Jan-28 05:18 300 4 8.7 3.0
2020-Jan-28 05:15 290 3 8.7 3.0
2020-Jan-28 05:13 300 4 8.7 3.0
2020-Jan-28 05:08 320 3 8.7 3.0
2020-Jan-28 05:03 8.7 3.0
2020-Jan-28 04:58 300 4 8.7 3.0
2020-Jan-28 04:55 300 3 8.7 3.0
2020-Jan-28 04:53 290 4 8.7 3.0
2020-Jan-28 04:48 310 4 8.7 3.0
2020-Jan-28 04:43 320 3 8.7 3.0
2020-Jan-28 04:38 320 5 8.7 3.0
2020-Jan-28 04:35 320 6 8.7 3.0
2020-Jan-28 04:33 330 8 8.7 3.0
2020-Jan-28 04:28 300 7 8.7 3.0
2020-Jan-28 04:23 290 7 8.7 3.0
2020-Jan-28 04:18 330 5 8.7 3.0
2020-Jan-28 04:15 300 7 8.7 3.0
2020-Jan-28 04:13 310 6 8.7 3.0
2020-Jan-28 04:08 290 5 gusting 14 8.7 3.0
2020-Jan-28 04:03 310 5 gusting 14 8.7 3.0
2020-Jan-28 03:58 340 10 8.7 3.0
2020-Jan-28 03:55 330 7 8.7 3.0
2020-Jan-28 03:53 340 8 8.7 3.0
2020-Jan-28 03:48 340 6 8.7 3.0 Light rain.
2020-Jan-28 03:43 330 7 8.7 4.0 Light rain.
2020-Jan-28 03:38 330 5 8.7 4.0
2020-Jan-28 03:35 320 7 8.7 4.0
2020-Jan-28 03:33 340 7 8.7 4.0
2020-Jan-28 03:28 350 8 8.7 4.0
2020-Jan-28 03:23 360 6 8.7 4.0
2020-Jan-28 03:18 350 4 8.7 4.0
2020-Jan-28 03:15 300 5 8.7 5.0
2020-Jan-28 03:13 310 3 8.7 5.0
2020-Jan-28 03:08 310 4 8.7 5.0
2020-Jan-28 03:03 300 4 8.7 5.0
2020-Jan-28 02:58 290 6 8.7 5.0
2020-Jan-28 02:53 310 5 8.7 5.0
2020-Jan-28 02:48 310 5 8.7 5.0
2020-Jan-28 02:45 330 4 8.7 5.0
2020-Jan-28 02:43 310 4 8.7 5.0
2020-Jan-28 02:38 310 4 8.7 5.0
2020-Jan-28 02:33 8.7 5.0
2020-Jan-28 02:28 320 3 8.7 5.0
2020-Jan-28 02:23 8.7 5.0
2020-Jan-28 02:18 290 3 8.7 4.0
2020-Jan-28 02:13 8.7 4.0
2020-Jan-28 02:08 8.7 5.0
2020-Jan-28 02:03 8.7 5.0
2020-Jan-28 01:58 300 4 8.7 5.0
2020-Jan-28 01:53 300 3 8.7 5.0
2020-Jan-28 01:48 8.7 5.0
2020-Jan-28 01:45 330 3 8.7 5.0
2020-Jan-28 01:43 290 5 8.7 5.0
2020-Jan-28 01:38 290 4 8.7 5.0
2020-Jan-28 01:33 300 4 8.7 5.0
2020-Jan-28 01:28 300 3 8.7 5.0
2020-Jan-28 01:23 290 4 8.7 5.0
2020-Jan-28 01:18 280 4 8.7 5.0
2020-Jan-28 01:13 290 4 8.7 5.0
2020-Jan-28 01:08 280 4 8.7 5.0
2020-Jan-28 00:58 290 4 8.7 5.0
2020-Jan-28 00:53 8.7 5.0
2020-Jan-28 00:48 300 4 8.7 5.0
2020-Jan-28 00:45 330 4 8.7 5.0
2020-Jan-28 00:43 310 6 8.7 5.0
2020-Jan-28 00:38 280 3 8.7 5.0
2020-Jan-28 00:33 280 3 8.7 5.0
2020-Jan-28 00:28 8.7 5.0
2020-Jan-28 00:23 8.7 5.0
2020-Jan-28 00:18 270 3 8.7 5.0
2020-Jan-28 00:13 8.7 5.0
2020-Jan-28 00:08 280 3 8.7 5.0
2020-Jan-28 00:03 8.7 5.0
2020-Jan-27 23:45 330 4 8.7 5.0
2020-Jan-27 23:38 270 3 8.7 5.0
2020-Jan-27 23:33 290 3 8.7 5.0
2020-Jan-27 23:28 280 3 8.7 5.0
2020-Jan-27 23:23 290 4 8.7 5.0
2020-Jan-27 23:18 8.7 5.0
2020-Jan-27 23:13 8.7 5.0
2020-Jan-27 23:08 280 3 8.7 5.0
2020-Jan-27 23:03 8.7 5.0
2020-Jan-27 22:58 290 4 8.7 5.0
2020-Jan-27 22:53 300 3 8.7 5.0
2020-Jan-27 22:48 300 3 8.7 5.0
2020-Jan-27 22:45 330 4 8.7 6.0
2020-Jan-27 22:43 8.7 5.0
2020-Jan-27 22:38 8.7 5.0
2020-Jan-27 22:33 300 3 8.7 5.0
2020-Jan-27 22:28 290 3 8.7 6.0
2020-Jan-27 22:23 300 5 8.7 6.0
2020-Jan-27 22:18 290 5 8.7 6.0
2020-Jan-27 22:13 300 4 8.7 6.0
2020-Jan-27 22:08 300 4 8.7 6.0
2020-Jan-27 22:03 290 4 8.7 6.0
2020-Jan-27 21:58 300 4 8.7 6.0
2020-Jan-27 21:53 300 5 8.7 6.0
2020-Jan-27 21:48 310 6 8.7 6.0
2020-Jan-27 21:45 320 8 8.7 6.0
2020-Jan-27 21:43 300 3 8.7 6.0
2020-Jan-27 21:38 300 5 8.7 6.0
2020-Jan-27 21:33 310 5 8.7 6.0
2020-Jan-27 21:28 290 8 8.7 6.0
2020-Jan-27 21:23 290 5 8.7 6.0
2020-Jan-27 21:18 300 6 8.7 6.0
2020-Jan-27 21:13 290 6 gusting 14 8.7 6.0
2020-Jan-27 21:08 300 8 gusting 14 8.7 6.0
2020-Jan-27 21:03 320 8 8.7 6.0
2020-Jan-27 20:58 310 9 8.7 6.0
2020-Jan-27 20:53 320 10 8.7 7.0
2020-Jan-27 20:48 320 9 8.7 7.0
2020-Jan-27 20:45 310 10 gusting 14 8.7 7.0
2020-Jan-27 20:43 310 7 8.7 7.0
2020-Jan-27 20:38 300 9 gusting 14 8.7 7.0
2020-Jan-27 20:33 310 9 gusting 14 8.7 8.0
2020-Jan-27 20:28 330 8 8.7 8.0
2020-Jan-27 20:23 310 7 8.7 8.0
2020-Jan-27 20:18 280 9 8.7 8.0
2020-Jan-27 20:13 280 11 8.7 8.0
2020-Jan-27 20:08 290 7 8.7 8.0
2020-Jan-27 20:03 280 6 8.7 7.0
2020-Jan-27 19:58 280 5 gusting 14 8.7 7.0
2020-Jan-27 19:53 280 8 gusting 15 8.7 7.0
2020-Jan-27 19:48 280 10 gusting 15 8.7 7.0
2020-Jan-27 19:45 300 12 gusting 19 8.7 7.0
2020-Jan-27 19:43 290 7 gusting 14 8.7 7.0
2020-Jan-27 19:38 280 10 gusting 14 8.7 7.0
2020-Jan-27 19:33 280 9 gusting 14 8.7 7.0
2020-Jan-27 19:28 270 7 8.7 7.0
2020-Jan-27 19:23 270 9 gusting 14 8.7 7.0
2020-Jan-27 19:18 270 12 8.7 7.0
2020-Jan-27 19:13 260 9 gusting 15 8.7 7.0
2020-Jan-27 19:08 290 7 gusting 15 8.7 6.0
2020-Jan-27 19:03 260 9 gusting 15 8.7 6.0
2020-Jan-27 18:58 280 11 gusting 15 8.7 6.0
2020-Jan-27 18:53 280 7 8.7 6.0
2020-Jan-27 18:48 260 10 8.7 7.0
2020-Jan-27 18:45 310 10 gusting 14 8.7 6.0
2020-Jan-27 18:43 270 7 8.7 6.0
2020-Jan-27 18:38 290 6 8.7 6.0
2020-Jan-27 18:33 280 7 8.7 7.0
2020-Jan-27 18:28 270 9 gusting 15 8.7 7.0
2020-Jan-27 18:22 280 10 gusting 15 8.7 6.0
2020-Jan-27 18:18 280 7 8.7 6.0
2020-Jan-27 18:13 270 8 8.7 6.0
2020-Jan-27 18:08 280 10 8.7 7.0
2020-Jan-27 18:03 270 10 8.7 6.0
2020-Jan-27 17:45 290 10 gusting 14 8.7 7.0
2020-Jan-27 17:38 260 7 8.7 7.0
2020-Jan-27 17:33 290 4 8.7 7.0
2020-Jan-27 17:28 240 6 8.7 7.0
2020-Jan-27 17:23 250 5 8.7 7.0
2020-Jan-27 17:18 230 9 8.7 7.0
2020-Jan-27 17:13 250 7 8.7 7.0
2020-Jan-27 17:08 250 8 8.7 7.0
2020-Jan-27 17:03 250 8 8.7 7.0
2020-Jan-27 16:58 240 8 gusting 14 8.7 6.0
2020-Jan-27 16:53 220 10 gusting 14 8.7 7.0
2020-Jan-27 16:48 230 9 8.7 7.0
2020-Jan-27 16:45 250 9 gusting 15 8.7 6.0
2020-Jan-27 16:43 230 10 8.7 6.0
2020-Jan-27 16:38 230 11 8.7 6.0
2020-Jan-27 16:33 240 10 8.7 6.0
2020-Jan-27 16:28 240 8 8.7 6.0
2020-Jan-27 16:23 250 10 8.7 6.0
2020-Jan-27 16:18 250 7 8.7 5.0
2020-Jan-27 16:13 240 7 8.7 5.0
2020-Jan-27 16:08 230 7 8.7 5.0
2020-Jan-27 16:03 250 8 8.7 5.0
2020-Jan-27 15:58 250 8 8.7 5.0
2020-Jan-27 15:53 240 7 8.7 5.0
2020-Jan-27 15:48 240 6 8.7 5.0
2020-Jan-27 15:45 260 6 8.7 5.0
2020-Jan-27 15:43 230 8 8.7 5.0
2020-Jan-27 15:38 230 7 8.7 5.0
2020-Jan-27 15:33 220 6 8.7 4.0
2020-Jan-27 15:28 210 5 8.7 4.0
2020-Jan-27 15:23 220 5 8.7 4.0
2020-Jan-27 15:18 210 5 8.7 4.0
2020-Jan-27 15:13 210 6 8.7 4.0
2020-Jan-27 15:08 210 3 8.7 3.0
2020-Jan-27 15:03 220 5 8.7 3.0
2020-Jan-27 14:58 220 4 8.7 3.0
2020-Jan-27 14:53 220 4 8.7 3.0
2020-Jan-27 14:48 220 5 8.7 3.0
2020-Jan-27 14:45 260 7 8.7 3.0
2020-Jan-27 14:43 220 4 8.7 3.0
2020-Jan-27 14:38 240 5 8.7 3.0
2020-Jan-27 14:33 230 6 8.7 3.0
2020-Jan-27 14:28 220 5 8.7 3.0
2020-Jan-27 14:23 220 5 8.7 3.0
2020-Jan-27 14:18 220 3 8.7 3.0
2020-Jan-27 14:13 220 5 8.7 2.0
2020-Jan-27 14:08 220 5 8.7 2.0
2020-Jan-27 14:03 210 3 8.7 2.0
2020-Jan-27 13:45 240 7 8.7 2.0
2020-Jan-27 13:38 220 4 8.7 2.0
2020-Jan-27 13:33 220 5 8.7 2.0
2020-Jan-27 13:28 220 5 8.7 2.0
2020-Jan-27 13:23 230 4 8.7 2.0
2020-Jan-27 13:18 230 5 8.7 2.0
2020-Jan-27 13:13 230 5 8.7 1.0
2020-Jan-27 13:08 220 5 8.7 1.0
2020-Jan-27 13:03 220 4 8.7 1.0
2020-Jan-27 12:58 220 4 8.7 1.0
2020-Jan-27 12:53 220 4 8.7 1.0
2020-Jan-27 12:48 220 4 8.7 1.0
2020-Jan-27 12:45 240 6 8.7 2.0
2020-Jan-27 12:43 220 4 8.7 1.0
2020-Jan-27 12:38 210 3 8.7 1.0
2020-Jan-27 12:33 210 4 8.7 1.0
2020-Jan-27 12:28 210 4 8.7 1.0
2020-Jan-27 12:23 210 3 8.7 1.0
2020-Jan-27 12:18 200 3 8.7 1.0
2020-Jan-27 12:13 200 3 8.7 1.0
2020-Jan-27 12:08 200 4 8.7 2.0
2020-Jan-27 12:03 200 3 8.7 2.0
2020-Jan-27 11:46 230 6 8.7 2.0
2020-Jan-27 11:45 230 6 8.7 2.0
2020-Jan-27 11:38 220 4 8.7 1.0
2020-Jan-27 11:35 8.7 1.0
2020-Jan-27 11:33 200 3 8.7 1.0
2020-Jan-27 11:28 190 3 8.7 1.0
2020-Jan-27 11:23 180 3 8.7 1.0
2020-Jan-27 11:18 8.7 1.0
2020-Jan-27 11:15 8.7 1.0
2020-Jan-27 11:13 8.7 1.0
2020-Jan-27 11:08 190 3 8.7 2.0
2020-Jan-27 11:03 200 3 8.7 2.0
2020-Jan-27 10:58 8.7 2.0
2020-Jan-27 10:55 200 4 8.7 2.0
2020-Jan-27 10:53 220 6 8.7 2.0
2020-Jan-27 10:48 220 5 8.7 2.0
2020-Jan-27 10:43 210 4 8.7 1.0
2020-Jan-27 10:38 220 3 8.7 1.0
2020-Jan-27 10:35 8.7 1.0
2020-Jan-27 10:33 8.7 1.0
2020-Jan-27 10:28 8.7 1.0
2020-Jan-27 10:23 8.7 1.0
2020-Jan-27 10:18 180 3 8.7 1.0
2020-Jan-27 10:15 170 3 8.7 1.0
2020-Jan-27 10:13 180 3 8.7 1.0
2020-Jan-27 10:08 8.7 1.0
2020-Jan-27 10:03 180 3 8.7 1.0
2020-Jan-27 09:58 170 3 8.7 1.0
2020-Jan-27 09:55 8.7 1.0
2020-Jan-27 09:53 8.7 1.0
2020-Jan-27 09:48 8.7 1.0
2020-Jan-27 09:43 8.7 2.0
2020-Jan-27 09:38 8.7 2.0
2020-Jan-27 09:35 190 3 8.7 2.0
2020-Jan-27 09:33 200 3 8.7 2.0
2020-Jan-27 09:28 200 3 8.7 2.0
2020-Jan-27 09:23 8.7 2.0
2020-Jan-27 09:18 200 3 8.7 2.0
2020-Jan-27 09:15 210 5 8.7 2.0
2020-Jan-27 09:13 220 5 8.7 2.0
2020-Jan-27 09:08 240 8 8.7 2.0
2020-Jan-27 09:03 230 7 8.7 2.0
2020-Jan-27 08:58 240 6 8.7 2.0
2020-Jan-27 08:55 230 6 8.7 2.0
2020-Jan-27 08:53 250 6 8.7 1.0
2020-Jan-27 08:48 8.7 1.0
2020-Jan-27 08:43 8.7 1.0
2020-Jan-27 08:38 190 3 8.7 1.0
2020-Jan-27 08:35 170 3 8.7 1.0
2020-Jan-27 08:33 180 3 8.7 1.0
2020-Jan-27 08:28 180 3 8.7 1.0
2020-Jan-27 08:23 8.7 1.0
2020-Jan-27 08:18 190 3 8.7 1.0
2020-Jan-27 08:15 8.7 1.0
2020-Jan-27 08:13 200 3 8.7 1.0
2020-Jan-27 08:08 180 3 8.7 1.0
2020-Jan-27 08:03 180 4 8.7 1.0
2020-Jan-27 07:58 180 4 8.7 1.0
2020-Jan-27 07:55 170 4 8.7 1.0
2020-Jan-27 07:53 180 4 8.7 1.0
2020-Jan-27 07:48 180 3 8.7 1.0
2020-Jan-27 07:43 190 3 8.7 1.0
2020-Jan-27 07:38 200 3 8.7 1.0
2020-Jan-27 07:35 200 3 8.7 1.0
2020-Jan-27 07:33 200 3 8.7 1.0
2020-Jan-27 07:28 200 3 8.7 1.0
2020-Jan-27 07:23 200 3 8.7 1.0
2020-Jan-27 07:18 190 3 8.7 1.0
2020-Jan-27 07:15 8.7 1.0
2020-Jan-27 07:13 8.7 1.0
2020-Jan-27 07:08 8.7 1.0
2020-Jan-27 07:03 8.7 1.0
2020-Jan-27 06:58 210 3 8.7-0.0
2020-Jan-27 06:55 200 3 8.7-0.0
2020-Jan-27 06:53 210 3 8.7-0.0
2020-Jan-27 06:48 8.7-0.0
2020-Jan-27 06:43 230 3 8.7-0.0
2020-Jan-27 06:38 230 3 8.7-0.0
2020-Jan-27 06:35 220 3 8.7-0.0
2020-Jan-27 06:33 220 4 8.7-0.0
2020-Jan-27 06:28 180 3 8.7-1.0
2020-Jan-27 06:23 8.7-1.0
2020-Jan-27 06:18 8.7-1.0
2020-Jan-27 06:15 8.7-1.0
2020-Jan-27 06:13 8.7-1.0
2020-Jan-27 06:08 8.7-2.0
2020-Jan-27 06:03 8.7-2.0
2020-Jan-27 05:55 8.7-1.0
2020-Jan-27 05:38 8.7-2.0
2020-Jan-27 05:35 8.7-2.0
2020-Jan-27 05:33 8.7-2.0
2020-Jan-27 05:28 8.7-3.0
2020-Jan-27 05:23 8.7-2.0
2020-Jan-27 05:18 8.7-2.0
2020-Jan-27 05:15 8.7-2.0
2020-Jan-27 05:13 8.7-2.0
2020-Jan-27 05:08 8.7-2.0
2020-Jan-27 05:03 8.7-2.0
2020-Jan-27 04:58 8.7-1.0
2020-Jan-27 04:55 8.7-1.0
2020-Jan-27 04:53 8.7-1.0
2020-Jan-27 04:48 8.7-1.0
2020-Jan-27 04:43 8.7-0.0
2020-Jan-27 04:38 8.7-0.0
2020-Jan-27 04:35 8.7-0.0
2020-Jan-27 04:33 8.7-0.0
2020-Jan-27 04:28 8.7-0.0
2020-Jan-27 04:23 8.7 1.0
2020-Jan-27 04:18 8.7 1.0
2020-Jan-27 04:15 8.7 1.0
2020-Jan-27 04:13 8.7 1.0
2020-Jan-27 04:08 8.7-0.0
2020-Jan-27 04:03 8.7-0.0
2020-Jan-27 03:58 8.7 1.0
2020-Jan-27 03:55 8.7 1.0
2020-Jan-27 03:53 8.7 1.0
2020-Jan-27 03:48 8.7 1.0
2020-Jan-27 03:43 8.7 1.0
2020-Jan-27 03:38 240 3 8.7 1.0
2020-Jan-27 03:35 240 3 8.7 1.0
2020-Jan-27 03:33 240 3 8.7 1.0
2020-Jan-27 03:28 8.7 2.0
2020-Jan-27 03:23 250 5 8.7 1.0
2020-Jan-27 03:18 250 5 8.7 1.0
2020-Jan-27 03:15 240 4 8.7 1.0
2020-Jan-27 03:13 250 4 8.7-0.0
2020-Jan-27 03:08 8.7-0.0
2020-Jan-27 03:03 8.7-0.0
2020-Jan-27 02:58 8.7-0.0
2020-Jan-27 02:53 8.7-0.0
2020-Jan-27 02:48 8.7-0.0
2020-Jan-27 02:45 260 8 8.7 2.0
2020-Jan-27 02:43 8.7-0.0
2020-Jan-27 02:38 8.7-0.0
2020-Jan-27 02:33 8.7-0.0
2020-Jan-27 02:28 8.7-0.0
2020-Jan-27 02:23 8.7 1.0
2020-Jan-27 02:18 8.7 1.0
2020-Jan-27 02:13 8.7 1.0
2020-Jan-27 02:08 200 3 8.7 1.0
2020-Jan-27 02:03 200 3 8.7 1.0
2020-Jan-27 01:58 8.7 1.0
2020-Jan-27 01:53 8.7 1.0
2020-Jan-27 01:48 8.7 1.0
2020-Jan-27 01:45 240 5 8.7 2.0
2020-Jan-27 01:43 200 3 8.7 1.0
2020-Jan-27 01:38 210 3 8.7 1.0
2020-Jan-27 01:33 200 4 8.7 1.0
2020-Jan-27 01:28 190 4 8.7 1.0
2020-Jan-27 01:23 190 4 8.7 2.0
2020-Jan-27 01:18 8.7 2.0
2020-Jan-27 01:13 200 3 8.7 2.0
2020-Jan-27 01:08 190 3 8.7 2.0
2020-Jan-27 01:03 210 4 8.7 2.0
2020-Jan-27 00:58 210 4 8.7 2.0
2020-Jan-27 00:53 210 4 8.7 2.0
2020-Jan-27 00:48 210 4 8.7 2.0
2020-Jan-27 00:45 240 6 8.7 3.0
2020-Jan-27 00:43 210 3 8.7 2.0
2020-Jan-27 00:38 220 4 8.7 3.0
2020-Jan-27 00:33 240 5 8.7 3.0
2020-Jan-27 00:28 240 5 8.7 3.0
2020-Jan-27 00:23 240 5 8.7 3.0
2020-Jan-27 00:18 240 5 8.7 3.0
2020-Jan-27 00:13 250 5 8.7 3.0
2020-Jan-27 00:08 240 4 8.7 3.0
2020-Jan-27 00:03 240 4 8.7 2.0
2020-Jan-26 23:45 250 6 8.7 4.0
2020-Jan-26 23:38 240 4 8.7 4.0
2020-Jan-26 23:33 240 5 8.7 4.0
2020-Jan-26 23:28 250 6 8.7 4.0
2020-Jan-26 23:23 240 7 8.7 4.0
2020-Jan-26 23:18 240 6 8.7 4.0
2020-Jan-26 23:13 240 6 8.7 4.0
2020-Jan-26 23:08 240 4 8.7 4.0
2020-Jan-26 23:03 260 5 8.7 4.0